Location: Dives
(49.5887°N, 2.8882°E)
Time: 18:23:40
(UTC+00:00)

Daily predictions for brighter satellites

Satellite Brightness Start Highest point End
(mag) Time Altitude Azimuth Time Altitude Azimuth Time Altitude Azimuth
CZ-2D R/B 3.9 17:11:29 10° S 17:15:12 60° W 17:18:56 10° NNW
CORIOLIS 4.3 17:10:07 10° SSE 17:15:33 86° WSW 17:21:00 10° NNW
ADEOS 3.6 17:13:20 10° SSE 17:18:33 80° ENE 17:23:47 10° NNW
Cosmos 1340 Rocket 3.2 17:15:35 10° SSE 17:19:15 42° E 17:22:59 10° NNE
Cosmos 2266 Rocket 4.0 17:14:00 10° N 17:20:21 73° E 17:26:31 10° SSE
Cosmos 1980 Rocket 2.4 17:15:51 10° SSW 17:21:32 82° WNW 17:27:17 10° NNE
Cosmos 2369 3.9 17:16:39 10° SSW 17:22:18 81° WNW 17:28:02 10° NNE
Cosmos 1763 Rocket 4.0 17:17:31 10° NNW 17:22:23 38° ENE 17:27:09 10° SE
USA 215 3.7 17:17:06 10° SE 17:23:38 69° SW 17:30:12 10° WNW
Okean O Rocket 3.2 17:22:13 10° E 17:24:39 15° ENE 17:27:06 10° NNE
ATLAS CENTAUR R/B 1.7 17:20:24 10° SW 17:25:07 87° SE 17:29:42 10° NE
ATLAS 2AS CENTAUR R/B 2.8 17:18:30 10° NW 17:25:35 63° NE 17:32:14 10° ESE
Cosmos 2251 Rocket 3.6 17:21:27 10° SSW 17:26:47 77° ESE 17:32:11 10° NNE
Cosmos 1697 Rocket 3.8 17:22:05 10° WSW 17:27:28 43° NW 17:32:52 10° NNE
Radarsat Rocket 4.1 17:21:51 10° SSE 17:27:53 76° ENE 17:34:40 10° NNW
CZ-2C R/B 4.0 17:23:26 10° N 17:28:36 41° WNW 17:33:48 10° SW
SMAP 3.9 17:25:56 10° S 17:30:30 57° W 17:35:07 10° NNW
COBE Rocket 4.2 17:26:09 10° S 17:30:52 69° W 17:35:32 10° NNW
DELTA 2 DEB (DPAF) 4.1 17:28:59 10° NNE 17:33:23 68° ESE 17:37:45 10° S
Cosmos 2263 Rocket 3.0 17:28:17 10° NW 17:33:45 57° WSW 17:39:10 10° S
SL-08 RB Rocket 4.4 17:30:51 10° S 17:35:26 62° W 17:40:05 10° NNW
Cosmos 540 Rocket 4.0 17:34:48 10° N 17:39:33 35° NE 17:44:15 10° ESE
Cosmos 1461 4.5 17:39:07 10° SSE 17:42:09 19° ESE 17:44:27 13° ENE
SKYMED 2 3.8 17:39:30 10° NNE 17:43:45 48° E 17:47:57 10° S
Lacrosse 5 2.8 17:39:20 10° S 17:43:47 31° SE 17:47:30 14° ENE
SL-08 R/B 3.5 17:42:11 10° NNE 17:47:09 84° WNW 17:52:06 10° SSW
Cosmos 2058 Rocket 4.2 17:43:51 10° NNE 17:47:19 22° ENE 17:50:47 10° ESE
PSLV R/B 4.1 17:50:59 10° SE 17:54:22 37° ENE 17:57:50 10° N
Cosmos 1607 4.1 17:48:51 10° SW 17:54:58 73° NW 18:01:12 10° NE
YAOGAN 1 3.0 17:52:13 10° SE 17:56:15 40° ENE 18:00:18 10° N
Cosmos 676 Rocket 4.4 17:52:32 10° S 17:57:27 41° ESE 18:02:22 10° NE
Cosmos 1328 3.7 17:54:47 10° S 17:58:46 90° E 18:02:45 10° N
Cosmos 407 Rocket 3.5 17:53:50 10° SSW 17:58:59 82° WNW 18:04:09 10° NNE
DMSP B5D2-2 4.2 17:56:27 10° NNE 18:01:46 83° WNW 18:07:02 10° SSW
BREEZE M DEB (TANK) 4.3 17:56:34 10° WNW 18:02:01 37° SW 18:04:37 10° SSE
Meteor 1-11 4.4 17:56:53 10° S 18:02:32 54° E 18:08:10 10° NNE
Lacrosse 5 rocket 1.5 17:59:06 10° NW 18:02:32 43° NNE 18:04:27 22° E
USA 281 4.4 17:57:56 10° NNE 18:03:56 39° NW 18:09:54 10° WSW
Cosmos 1844 Rocket 2.6 17:59:12 10° NNW 18:04:46 63° ENE 18:10:16 10° SE
APEX 4.2 18:00:31 10° SSW 18:06:35 78° ESE 18:12:11 10° NNE
CZ-4B DEB 4.2 18:01:12 10° SSE 18:06:39 86° ENE 18:12:09 10° NNW
Cosmos 1536 Rocket 3.9 18:02:41 10° SSW 18:06:59 67° WNW 18:11:20 10° N
CZ-4 R/B 2.1 18:03:59 10° SE 18:07:40 32° ENE 18:11:19 10° N
Meteor 2-12 Rocket 4.4 18:02:26 10° N 18:08:27 58° ENE 18:14:24 10° SSE
Nadezhda 2 Rocket 4.4 18:03:18 10° N 18:09:29 62° ENE 18:15:32 10° SSE
CZ-4B R/B 3.3 18:05:14 10° SE 18:10:25 52° ENE 18:15:42 10° N
Cosmos 1140 Rocket 4.1 18:05:24 10° SW 18:10:30 58° WNW 18:15:37 10° NNE
IGS 5A 4.3 18:15:33 26° E 18:16:10 27° ENE 18:19:39 10° N
CZ-4C R/B 3.1 18:13:38 10° NNE 18:17:33 89° E 18:21:14 10° SSW
Cosmos 1844 3.7 18:11:44 10° NNW 18:17:33 68° ENE 18:23:18 10° SE
MOS 1-B 4.3 18:11:56 10° SSE 18:17:40 65° ENE 18:23:26 10° N
Cosmos 1190 Rocket 4.0 18:12:34 10° SSW 18:17:53 88° WNW 18:23:13 10° NNE
Cosmos 1606 Rocket 3.4 18:13:46 10° N 18:18:07 88° E 18:22:26 10° S
Cosmos 1408 3.3 18:15:47 10° SSW 18:19:06 51° WNW 18:22:29 10° N
RESURS DK-1 2.4 18:15:10 10° NNW 18:19:14 54° NE 18:21:55 20° SE
ISS -1.6 18:18:11 10° W 18:20:59 25° SW 18:23:47 10° SSE
Cosmos 2228 4.0 18:17:48 10° NNW 18:21:53 48° W 18:25:56 10° SSW
Cosmos 1633 2.6 18:19:04 10° SSE 18:22:16 44° E 18:23:16 33° NE
Cosmos 2278 4.3 18:17:12 10° SW 18:22:47 59° WNW 18:28:27 10° NNE
Cosmos 1892 2.8 18:23:04 10° SSW 18:26:47 71° W 18:30:33 10° N
Cosmos 2360 Rocket 2.4 18:21:32 10° S 18:26:53 46° ESE 18:30:24 21° NE
Cosmos 2219 Rocket 3.4 18:23:38 10° SSE 18:27:04 22° ESE 18:27:04 22° ESE
Cosmos 1892 Rocket 3.5 18:26:39 10° S 18:31:00 58° E 18:35:19 10° NNE
Cosmos 2333 Rocket 2.8 18:26:41 10° S 18:31:42 34° ESE 18:33:11 29° ENE
COSMO-SKYMED 1 3.2 18:27:30 10° N 18:31:47 58° WNW 18:36:03 10° SSW
Cosmos 2278 Rocket 3.5 18:28:51 10° N 18:33:07 21° NE 18:33:32 21° NE
Cosmos 2322 Rocket 2.1 18:32:42 10° SSW 18:38:18 78° ESE 18:42:51 16° NNE
Cosmos 1825 2.1 18:36:33 10° SSW 18:40:14 81° W 18:43:58 10° N
Feng Yun 1-1 Rocket 4.2 18:34:58 10° SSE 18:40:26 62° ENE 18:45:50 10° N
DMSP B5D1-3 4.5 18:37:33 10° NNE 18:42:37 61° ESE 18:47:40 10° S
SL-4 R/B 1.8 18:39:16 10° WNW 18:42:47 62° N 18:43:14 56° NE
COSMOS 2455 4.3 18:38:10 10° W 18:43:31 32° NW 18:48:55 10° NNE
Cosmos 468 Rocket 4.4 18:40:16 10° NNW 18:45:23 62° WSW 18:50:26 10° S
Cosmos 1726 Rocket 4.2 18:46:23 10° NNW 18:50:37 56° W 18:54:51 10° S
BlueWalker 3 2.4 18:47:03 10° WNW 18:50:50 48° N 18:51:11 46° NNE
SL-16 R/B 2.6 18:46:38 10° SW 18:52:16 64° WNW 18:57:26 13° NNE
Cosmos 2333 4.4 18:48:26 10° S 18:53:46 47° ESE 18:54:40 43° E
In-Cosmos 22 Rocket 4.4 18:48:04 10° SSW 18:53:53 78° WNW 18:59:46 10° N
Cosmos 1954 Rocket 4.4 18:50:48 10° SW 18:56:00 64° WNW 19:00:56 11° NNE
Cosmos 1745 Rocket 3.9 18:50:10 10° N 18:56:27 70° ENE 19:02:37 10° SSE
ATLAS 5 CENTAUR R/B 3.8 18:55:18 10° NW 18:57:50 15° N 18:58:45 14° NNE
CSL-04 Debris 4.2 18:56:13 38° SE 18:58:04 56° ENE 19:03:21 10° N
Okean O Rocket 1.6 18:55:58 10° SSE 19:00:22 83° WSW 19:04:50 10° NNW
Okean-O 4.2 19:03:02 22° NNE 19:03:02 22° NNE 19:04:54 10° N
Cosmos 1386 Rocket 4.3 18:55:55 10° N 19:01:58 81° E 19:08:01 10° SSE
Cosmos 1814 Rocket 4.2 18:57:12 10° NNW 19:02:25 49° ENE 19:02:29 49° ENE
Cosmos 1340 2.7 18:58:47 10° NNW 19:02:27 74° W 19:02:56 62° SSW
ATLAS CENTAUR R/B 3.5 19:00:28 10° W 19:04:13 23° NNW 19:06:27 17° N
CSL-04 Rocket 3.6 19:04:35 53° E 19:05:18 57° ENE 19:10:35 10° N
Cosmos 1980 Rocket 4.3 19:02:12 10° W 19:06:26 21° NW 19:10:43 10° N
Cosmos 1850 Rocket 3.9 19:01:40 10° S 19:06:46 61° ESE 19:07:01 60° E
Cosmos 1741 Rocket 3.9 19:08:45 10° S 19:14:00 67° ESE 19:14:11 67° E
Cosmos 1869 4.3 19:10:36 10° NNW 19:14:19 45° W 19:18:04 10° SSW
Cosmos 1709 Rocket 3.8 19:08:58 10° N 19:15:06 63° ENE 19:16:27 50° SE
Cosmos 841 Rocket 3.7 19:10:48 10° NNW 19:16:04 70° WSW 19:19:10 25° S
ATLAS 2AS CENTAUR R/B 4.0 19:09:54 10° NW 19:16:11 37° WSW 19:22:10 10° S
Cosmos 1943 Rocket 4.0 19:13:54 10° N 19:16:34 18° NNE 19:16:34 18° NNE
Cosmos 1461 3.2 19:16:14 10° SW 19:20:31 67° NW 19:20:38 66° NW
Cosmos 1553 Rocket 4.3 19:16:14 10° SSW 19:22:16 64° WNW 19:28:25 10° N
Genesis I 4.4 19:18:19 10° SW 19:20:43 36° SSW 19:20:43 36° SSW
Cosmos 1417 Rocket 4.5 19:19:04 10° SSW 19:25:21 81° W 19:31:36 10° N
Cosmos 2058 Rocket 4.2 19:21:20 10° NNW 19:25:30 44° W 19:29:42 10° SSW
Lacrosse 5 1.9 19:21:21 10° WSW 19:26:28 73° NNW 19:26:44 71° N
Landsat 7 4.3 19:29:57 49° N 19:29:57 49° N 19:33:25 10° NNW
Gblst 52 Del rocket 4.0 19:30:54 10° W 19:36:23 78° NNW 19:36:23 78° NNW
Cosmos 883 Rocket 4.4 19:32:58 10° S 19:41:14 46° NNE 19:45:33 10° NNE
Lacrosse 5 rocket 3.2 19:37:59 10° WNW 19:39:53 26° W 19:39:53 26° W
CZ-4 R/B 3.4 19:39:00 10° SSW 19:42:33 28° W 19:46:06 10° NW
BREEZE-M DEB (TANK) 4.0 19:38:47 10° W 19:42:55 54° S 19:44:07 49° SSE
S3M 4.5 19:50:41 10° SSW 19:57:00 60° WNW 20:03:19 10° N
Cosmos 2360 Rocket 3.5 20:05:47 10° WSW 20:11:00 37° NW 20:12:13 33° NNW
Cosmos 2219 Rocket 3.4 20:05:44 10° SW 20:08:53 34° SW 20:08:53 34° SW
Cosmos 2333 Rocket 3.1 20:10:22 10° SW 20:15:16 46° WNW 20:15:16 46° WNW
Cosmos 2278 Rocket 3.5 20:12:22 10° NNW 20:15:25 33° NNW 20:15:25 33° NNW
Cosmos 2322 Rocket 4.1 20:18:24 10° W 20:22:59 25° NW 20:24:43 21° NNW
